GFSSGP_850_spd_129.txt.gz
Wind_Speed
4 6 3 1 3 4 3 5 2 7 7 16 27 8 2 3 2 4 2 19 22 30 31 32 30 28 26 24 23 21 19 16 16 18 20 18 14 12 13 14 16 16 17 18 16 16 14 14 13
7 7 3 3 4 2 5 4 5 3 17 29 20 3 4 4 7 2 13 8 22 29 31 29 30 28 27 24 24 21 19 17 16 17 20 18 15 14 14 14 15 16 19 18 16 18 16 15 15
11 8 3 3 3 4 4 3 6 20 28 20 6 6 3 4 8 6 6 7 21 28 30 27 28 28 26 26 25 21 19 18 17 17 20 18 16 14 15 14 15 15 18 18 16 18 16 16 16
7 4 4 3 4 5 3 7 9 16 16 9 12 1 3 3 4 3 3 8 19 26 28 26 27 27 26 26 24 20 20 19 17 18 22 19 16 15 15 15 14 15 18 19 17 18 16 16 17
9 4 3 2 4 4 5 7 16 7 7 10 11 4 3 3 0 2 4 9 13 22 27 26 25 26 27 26 22 22 20 19 18 18 21 19 17 16 16 15 14 14 16 17 17 17 15 15 14
4 3 3 1 4 4 6 12 10 11 10 11 8 5 2 4 4 1 5 10 12 16 24 25 25 26 26 26 23 22 22 20 18 18 19 19 18 18 17 15 14 14 16 17 17 15 13 14 15
5 3 4 3 3 4 2 13 4 8 8 9 11 4 0 2 4 6 7 10 12 14 22 25 24 26 26 25 23 23 23 21 20 20 20 20 20 16 18 15 14 15 18 19 18 15 14 16 17
4 4 3 2 2 4 2 6 5 7 5 10 11 4 4 4 5 10 8 10 13 17 21 22 22 23 24 25 25 24 23 21 20 21 20 20 20 16 17 15 14 16 20 19 19 17 14 13 13
4 4 2 3 1 6 7 4 2 6 7 10 6 9 8 3 3 9 14 13 16 17 24 26 19 24 22 27 27 27 23 21 19 21 20 21 20 18 16 14 14 17 21 19 17 17 14 12 8
4 3 6 5 3 4 6 4 12 3 11 4 15 11 8 5 7 9 14 19 21 22 23 28 17 24 23 31 30 29 25 24 21 25 24 23 22 18 16 13 15 19 23 20 19 16 13 8 7
3 4 4 6 8 7 5 8 4 5 6 16 16 16 8 9 11 10 10 10 15 22 25 20 35 48 47 36 34 31 27 24 23 26 25 24 22 19 15 15 17 22 27 23 19 16 13 12 11
0 6 6 5 5 4 3 6 8 3 10 12 8 8 6 6 8 12 16 16 16 19 20 22 17 27 35 35 33 32 28 25 25 26 26 26 24 20 15 14 17 24 30 24 19 18 16 14 14
3 3 3 8 16 14 9 6 4 3 9 11 10 11 10 10 12 14 7 15 22 24 24 22 7 5 21 26 29 30 28 25 26 27 27 25 24 19 15 15 20 27 30 24 21 18 16 14 14
2 7 14 11 12 7 3 1 4 1 7 8 10 12 11 13 14 13 12 12 14 22 27 24 8 12 14 19 21 28 26 23 26 28 26 25 22 19 15 17 24 31 28 24 19 16 17 15 13
5 4 7 2 6 2 5 1 2 6 4 11 15 17 18 18 17 15 14 13 14 13 25 25 14 12 6 17 16 20 29 27 29 29 27 25 22 18 13 20 28 30 28 23 18 20 18 16 14
3 4 4 6 5 2 4 7 0 5 6 13 18 21 22 23 23 17 14 12 9 11 18 25 18 22 6 12 30 19 31 26 28 30 29 25 22 16 15 22 28 27 27 25 20 18 21 17 14
6 1 2 7 3 1 2 5 1 5 8 15 20 22 24 25 23 21 15 11 9 11 16 23 19 25 13 8 9 18 16 23 30 30 30 26 24 19 16 20 25 24 25 25 20 20 21 20 15
4 2 4 5 4 1 3 7 3 3 7 11 15 22 27 27 25 26 17 9 9 7 17 21 24 28 20 15 12 22 14 24 30 33 31 28 26 22 17 19 21 23 26 22 20 21 22 18 16
2 3 4 4 4 3 5 5 5 5 6 10 19 28 30 26 24 22 14 5 6 5 16 16 21 18 21 17 23 25 30 29 31 31 31 30 27 25 22 19 18 19 26 24 22 22 21 20 17
4 2 4 5 4 2 3 6 3 5 5 5 18 28 26 27 26 23 10 2 4 11 14 15 11 14 16 19 24 21 27 30 30 31 30 28 28 28 19 21 17 15 24 26 24 23 25 21 20
2 4 3 5 5 1 0 6 2 4 5 8 18 21 23 22 22 23 8 4 9 14 14 15 14 14 15 18 19 23 26 29 34 31 32 32 30 29 23 22 15 16 23 28 26 24 23 24 23
2 5 3 3 3 3 3 4 3 4 7 4 19 23 22 26 22 16 6 6 12 15 16 16 15 15 14 13 20 22 26 27 21 28 30 32 29 30 24 27 19 17 23 25 26 25 22 23 24
6 2 3 3 3 2 2 3 5 5 6 10 16 22 24 26 24 14 1 6 12 16 16 15 13 14 15 16 20 24 25 22 18 21 31 23 25 22 21 22 23 20 22 23 25 24 23 23 24
2 3 6 4 3 2 3 3 4 4 5 8 15 21 23 25 22 20 9 10 11 13 12 10 10 11 9 9 12 17 20 24 24 28 28 26 27 28 28 26 25 24 23 24 24 24 25 25 26
5 5 2 3 3 5 1 2 7 3 2 3 12 19 19 21 23 22 17 13 14 11 10 12 12 13 11 10 9 13 19 21 20 22 20 29 23 22 21 21 22 24 24 24 24 25 27 27 28
2 5 5 5 2 5 4 3 4 3 1 6 10 13 14 17 20 22 19 15 15 13 13 12 9 10 9 10 9 6 7 11 18 23 27 20 12 13 17 23 22 25 25 25 26 27 29 29 24
3 2 4 6 1 3 3 5 1 2 4 7 9 11 14 15 15 16 17 17 16 12 11 8 7 7 12 9 4 7 10 11 12 10 10 9 9 11 12 20 24 22 25 22 22 25 28 25 21
2 6 3 3 1 3 4 5 4 5 5 5 4 7 9 10 11 12 12 12 10 14 12 10 7 5 6 5 4 8 11 11 7 9 10 7 9 12 14 17 19 20 24 23 25 26 25 25 24
2 1 4 4 4 3 2 5 5 6 6 5 5 2 4 5 6 8 10 10 9 8 9 11 12 13 9 6 7 10 11 10 9 9 9 10 12 11 12 10 11 15 20 23 24 26 27 29 26
4 6 6 4 3 1 3 5 2 5 8 9 4 2 2 3 5 7 11 14 15 16 15 17 15 14 13 14 14 14 12 12 12 12 13 12 10 10 11 12 13 12 12 13 16 16 15 12 11

GFSSGP_850_spd_135.txt.gz
Wind_Speed
4 4 1 2 2 2 1 2 2 9 5 6 14 6 5 3 2 3 12 4 11 27 29 25 21 20 19 16 14 13 12 15 15 11 10 11 11 14 18 18 16 15 13 13 14 14 15 16 16
7 6 3 4 3 0 0 2 7 6 11 13 5 2 1 1 3 3 5 6 16 25 28 26 24 22 21 18 15 14 13 15 15 14 10 9 11 13 16 16 15 14 11 10 11 12 12 13 12
9 8 3 2 3 3 3 2 5 10 5 9 5 4 3 3 4 2 5 3 18 24 28 25 23 22 23 20 17 15 14 15 15 15 11 9 12 13 15 16 15 14 13 12 12 12 14 13 12
9 5 6 0 4 3 2 4 4 10 6 11 6 1 3 6 4 4 2 3 16 21 27 24 23 22 22 20 18 16 15 16 17 15 12 11 12 13 14 18 16 15 14 13 13 12 14 14 15
10 5 3 1 2 2 3 4 4 5 3 7 8 6 4 5 5 3 1 5 13 19 25 22 21 21 20 19 18 17 15 16 18 14 12 12 13 12 13 18 15 15 14 13 14 15 15 15 17
4 3 2 2 3 3 4 4 2 3 4 7 4 6 2 9 4 3 3 5 11 20 22 20 21 20 19 18 19 19 16 16 17 17 14 12 13 13 13 17 17 16 15 13 12 13 15 15 15
5 2 3 3 2 2 3 3 1 4 4 3 6 3 4 10 5 2 2 4 9 20 24 21 21 20 19 19 20 20 16 16 19 18 16 13 15 13 12 14 14 15 18 12 12 12 14 15 16
4 3 3 2 3 3 2 3 2 2 2 9 2 1 2 11 4 1 2 5 9 17 22 22 19 21 21 21 20 20 18 17 18 19 17 16 16 16 13 13 14 14 16 13 13 15 16 16 16
5 3 1 3 5 2 2 1 1 2 4 5 2 5 8 8 4 4 5 6 10 13 16 21 20 21 21 22 25 21 18 17 18 21 20 19 18 17 15 15 15 17 17 15 12 16 15 15 15
4 2 5 4 4 3 2 3 4 1 5 3 8 3 6 7 7 7 8 9 12 13 15 18 21 24 23 20 24 23 23 22 20 22 22 22 20 18 16 17 17 18 18 14 14 15 13 11 13
3 3 3 4 11 5 3 3 3 2 1 2 9 8 4 5 6 9 11 12 15 12 16 17 18 22 22 20 22 24 25 22 17 23 23 24 24 21 19 20 21 18 20 17 12 13 11 10 12
1 6 5 3 3 4 4 3 2 2 4 3 4 2 0 1 2 4 6 8 14 16 19 21 20 21 23 23 19 22 30 29 21 24 26 27 28 24 21 20 24 22 20 17 15 12 11 13 15
3 3 5 8 9 11 9 9 5 7 5 2 1 1 2 4 5 5 6 7 7 15 18 19 23 25 26 27 25 28 33 43 41 26 30 31 31 26 22 20 22 23 20 18 17 14 15 17 17
3 5 9 9 3 5 5 3 9 7 6 4 2 2 4 7 9 10 12 11 11 11 14 22 23 22 24 22 24 24 23 31 37 34 37 36 32 27 24 21 23 23 22 20 17 15 18 20 20
1 3 4 3 2 2 6 2 5 6 7 4 1 5 8 12 14 15 16 18 17 16 14 16 24 22 20 21 19 13 8 12 32 35 44 40 33 29 25 22 23 23 23 22 20 17 18 20 21
2 3 2 1 4 1 3 6 3 5 6 4 4 10 16 20 20 20 19 20 19 22 20 17 20 22 20 18 15 13 19 14 30 37 39 37 33 30 25 23 23 25 25 23 21 19 19 20 20
4 1 2 6 3 1 3 4 2 5 5 5 8 15 22 26 24 20 20 20 20 23 24 20 20 24 20 16 13 9 14 16 31 32 33 34 32 30 25 23 23 27 27 24 22 20 18 20 19
3 2 2 4 2 1 3 10 6 9 6 3 10 18 24 22 23 23 21 19 19 22 23 23 23 26 21 18 11 6 8 19 33 30 29 29 32 29 26 23 26 29 27 24 23 23 21 19 19
3 2 4 4 4 2 4 7 10 7 4 3 13 19 22 23 25 24 23 16 16 16 20 23 25 27 27 26 10 8 13 21 31 29 31 31 32 30 26 23 29 30 27 24 23 26 22 22 20
2 2 4 4 3 3 4 12 3 5 3 5 12 20 23 27 25 23 17 8 9 12 17 19 25 28 29 26 11 10 14 23 27 26 30 30 31 29 24 25 30 29 27 25 23 26 28 24 22
3 4 4 5 2 1 5 4 2 2 3 6 13 14 18 22 22 20 12 4 5 8 9 16 19 19 25 27 14 11 19 22 27 26 27 28 28 29 26 28 30 29 25 24 25 27 28 27 24
2 4 3 2 1 3 3 4 2 2 1 5 12 12 22 20 19 16 13 7 4 4 7 13 14 19 20 22 22 21 17 17 22 25 23 23 23 25 31 30 29 26 24 22 25 26 28 25 24
5 2 2 1 2 1 1 2 3 1 3 5 11 15 18 18 18 19 14 12 11 9 6 4 7 12 11 13 15 23 23 18 20 21 24 21 21 23 28 28 29 26 20 22 24 26 29 27 24
5 4 4 3 2 2 2 2 3 3 2 3 7 11 12 15 16 17 17 14 15 11 7 7 6 7 8 9 10 8 16 15 20 17 25 17 17 17 32 27 28 26 24 22 24 24 24 24 25
3 3 1 0 1 3 2 0 6 5 5 4 4 7 10 12 13 16 16 16 14 13 12 9 7 7 6 6 4 5 9 11 17 24 24 17 20 29 24 35 29 27 26 24 25 27 25 26 26
4 5 4 4 2 2 1 5 2 4 8 4 2 5 5 7 10 13 13 12 14 14 13 11 10 10 7 6 7 8 9 18 14 13 14 16 16 24 27 25 29 27 23 25 25 27 28 28 26
4 4 3 6 1 1 2 5 3 6 5 5 5 4 3 5 5 7 10 12 11 10 9 9 10 13 13 12 10 13 12 10 10 12 15 16 16 15 18 26 27 24 24 22 22 24 27 26 24
3 8 3 1 3 3 3 4 3 6 8 8 9 7 3 1 2 3 7 10 9 10 11 8 6 8 9 11 14 15 17 14 12 13 13 11 10 12 14 15 18 19 20 19 16 17 18 19 20
2 2 4 3 2 3 2 4 6 7 9 12 11 11 8 3 2 3 6 8 8 10 10 11 10 9 9 14 15 17 14 15 17 18 15 12 11 8 9 12 15 16 19 19 18 19 19 21 22
3 5 6 3 5 1 0 5 3 6 9 13 14 13 10 6 5 4 7 8 9 9 10 11 13 13 13 13 13 17 18 17 18 15 12 11 12 11 9 10 11 13 16 16 18 19 20 21 20

GFSSGP_850_spd_138.txt.gz
Wind_Speed
5 3 1 1 4 4 3 4 1 3 2 6 9 6 6 4 6 4 7 3 8 18 20 21 18 18 15 16 14 11 11 10 9 7 10 10 13 17 16 15 14 13 13 13 14 13 13 12 12
6 4 1 2 4 6 4 3 1 5 8 10 3 3 4 4 5 3 3 7 9 20 21 22 20 19 18 14 14 13 12 14 11 8 9 9 11 16 17 14 13 11 10 10 11 11 12 10 11
7 7 4 3 3 6 3 4 1 8 3 9 3 3 4 3 3 2 7 4 14 20 19 21 21 21 19 17 15 14 14 15 14 11 8 9 11 15 16 13 11 9 9 9 9 10 9 8 9
6 4 2 6 5 2 2 2 2 6 0 5 5 2 0 4 3 6 5 2 15 18 19 21 22 22 20 18 16 15 15 16 15 13 9 12 12 14 15 12 12 11 10 11 12 11 10 12 15
8 3 4 5 5 2 4 1 1 2 2 5 5 3 1 4 6 5 2 4 13 16 18 19 22 22 22 19 18 16 16 17 16 13 10 13 14 15 18 16 13 12 11 12 12 13 13 16 17
4 1 5 7 6 5 5 4 2 2 3 3 3 5 1 5 4 4 1 3 10 14 17 16 21 21 21 20 19 18 17 18 17 14 11 12 14 15 19 15 14 13 12 13 13 14 14 15 16
2 3 3 3 3 5 6 2 5 3 4 2 5 6 0 4 3 1 2 5 6 13 16 16 18 22 21 20 20 20 19 18 19 17 14 12 14 14 19 16 16 14 12 12 11 13 13 14 14
3 3 4 4 4 3 5 2 2 3 2 4 3 3 2 6 4 1 1 5 9 13 17 21 19 19 20 21 20 22 20 20 21 19 17 12 14 14 15 15 16 17 13 11 10 13 14 15 16
3 4 4 2 4 2 4 4 3 2 6 3 3 6 5 8 8 4 3 6 11 12 15 20 19 19 19 20 22 23 22 22 21 19 18 15 15 14 14 13 14 18 15 13 14 15 16 15 14
6 3 1 0 3 3 2 5 3 5 5 5 4 4 7 6 6 7 6 7 11 12 16 21 23 21 21 21 24 26 24 22 23 20 22 17 16 15 14 15 15 16 15 13 13 15 15 13 12
3 2 1 3 7 5 5 6 6 6 6 3 4 6 5 4 4 4 6 8 10 11 16 19 21 24 23 23 23 24 22 23 28 23 21 20 20 20 16 15 16 18 15 12 12 15 11 11 11
5 3 4 2 3 5 8 5 7 9 5 3 1 1 3 4 5 5 6 6 7 13 15 15 20 20 22 21 22 21 21 21 27 18 17 18 23 20 18 17 17 16 13 12 11 10 10 11 11
6 3 6 9 7 10 10 13 10 10 8 5 4 3 4 5 7 7 9 10 10 8 16 19 18 23 23 25 23 20 19 24 30 30 31 18 23 22 20 19 18 16 15 13 12 11 12 13 13
1 6 10 9 8 7 7 8 7 11 10 8 6 4 4 6 8 10 10 12 13 14 14 18 21 21 26 26 26 24 23 26 34 36 19 31 25 26 25 20 19 18 17 16 14 13 14 14 15
3 8 8 10 7 4 6 8 11 7 11 11 9 7 6 8 10 12 14 16 16 17 20 19 18 25 27 26 23 26 25 21 27 37 37 40 34 36 28 23 21 19 16 16 14 14 15 16 16
5 5 7 5 3 3 6 12 3 10 12 13 10 10 10 12 13 15 16 18 18 20 22 24 21 20 25 22 23 23 23 20 18 25 40 41 38 37 32 26 24 21 20 18 16 16 16 17 16
5 6 6 4 3 3 10 9 2 9 11 13 12 12 13 16 18 17 17 18 20 23 24 25 21 17 20 25 20 18 17 18 14 23 32 38 43 36 32 30 27 25 23 20 19 17 17 17 16
4 6 5 7 4 6 12 16 11 10 11 13 12 14 16 20 21 20 20 20 20 20 23 26 23 16 20 22 17 17 14 15 19 30 37 39 37 32 34 29 26 27 27 25 21 19 17 16 16
7 8 10 8 5 7 12 12 10 9 11 10 10 13 18 20 23 21 20 20 16 17 18 23 22 19 23 24 15 13 9 15 25 31 33 38 36 30 32 28 26 29 29 28 23 21 21 18 17
9 10 12 9 4 6 10 14 11 7 8 4 8 14 16 22 22 18 14 11 10 11 12 15 19 19 27 24 15 12 10 16 19 30 33 35 35 33 32 27 26 31 29 28 25 25 21 18 19
12 13 10 10 3 11 10 14 6 4 5 3 6 9 14 15 17 18 11 7 4 4 7 9 12 22 27 21 17 14 11 19 24 26 34 34 35 32 31 26 25 32 31 28 25 27 23 22 19
12 7 9 7 5 6 2 4 8 7 7 3 6 7 9 14 17 15 10 8 5 9 10 11 11 14 22 17 16 12 9 22 26 31 37 34 29 29 31 25 28 32 29 27 25 25 25 22 22
4 4 4 5 9 8 8 5 5 5 8 4 3 5 8 12 15 15 12 13 13 12 12 10 7 11 11 11 14 14 11 5 24 24 26 23 26 28 32 27 31 33 29 25 25 25 23 21 18
11 5 2 3 4 6 4 5 4 6 3 2 1 3 6 9 11 12 10 13 15 12 10 9 7 9 9 8 8 11 14 18 20 22 23 19 20 21 25 31 30 28 26 24 24 24 22 21 19
9 6 3 4 5 2 3 5 7 5 5 3 2 4 4 7 8 9 10 12 13 13 11 9 7 8 8 5 9 8 10 14 18 20 24 25 19 17 18 33 36 31 25 24 23 23 22 20 20
14 10 4 4 3 1 2 6 1 4 7 6 4 3 4 5 6 7 8 9 11 12 12 11 11 11 10 10 10 9 9 10 21 19 19 21 17 17 20 32 29 26 26 23 20 22 23 24 19
7 9 1 1 1 4 5 5 5 6 8 8 8 6 6 4 4 5 6 6 7 7 8 8 11 11 10 9 9 8 9 13 16 15 15 15 12 16 26 33 32 31 26 22 19 19 22 25 24
6 12 4 4 4 5 6 5 4 12 13 11 11 11 8 7 6 5 4 6 5 6 5 5 6 9 12 13 12 11 11 10 12 13 17 14 14 12 19 21 22 26 27 25 18 18 21 22 22
7 6 4 3 4 3 3 2 0 13 13 14 13 13 11 8 7 7 6 5 5 4 3 5 5 9 11 13 16 17 15 12 12 12 13 12 11 11 10 13 18 21 24 23 17 14 15 15 15
14 14 16 6 6 3 4 2 5 10 12 14 15 14 12 8 8 9 8 6 5 5 6 7 8 9 12 13 14 14 18 17 18 17 17 16 15 15 12 11 11 13 16 19 22 21 19 19 19

GFSSGP_850_spd_144.txt.gz
Wind_Speed
3 2 10 8 3 3 7 2 7 3 1 9 5 6 7 20 6 2 4 5 9 11 12 15 12 11 11 10 9 8 7 8 7 6 8 10 10 10 9 10 10 11 12 13 12 13 14 17 19
4 2 4 6 3 5 5 8 5 6 7 4 10 7 7 9 11 10 5 2 12 15 14 14 13 11 10 10 9 7 8 8 7 7 7 10 13 9 9 10 11 12 12 12 11 12 12 14 18
2 1 8 4 4 7 4 7 8 5 1 5 5 1 5 5 11 6 6 2 11 18 13 13 14 13 11 10 10 8 7 7 6 6 6 9 14 11 9 9 9 10 10 10 10 8 10 14 19
4 4 7 3 11 8 1 7 10 4 4 2 5 5 9 8 6 6 6 3 14 17 14 10 14 13 12 11 10 9 9 8 5 5 5 8 13 13 9 8 7 8 7 7 6 8 12 17 20
3 6 4 6 11 11 4 10 6 6 5 4 8 8 14 10 7 6 5 7 11 13 13 8 14 16 14 13 11 10 11 11 7 5 3 7 12 13 11 9 7 7 8 9 9 12 17 20 19
5 4 4 6 11 4 5 7 1 5 10 5 1 12 10 10 8 8 7 6 8 11 14 12 14 16 17 16 14 13 13 13 10 7 4 6 12 11 11 11 9 8 9 9 11 14 18 20 20
3 3 7 13 7 3 3 4 2 5 3 4 6 5 9 11 5 7 3 9 9 7 14 14 11 15 19 18 17 15 14 14 13 10 7 8 14 12 11 11 10 10 10 11 13 15 17 18 20
2 1 6 7 5 5 5 4 3 5 5 3 2 3 5 5 1 6 3 3 12 12 6 12 12 12 20 20 18 17 16 16 16 13 10 8 14 13 11 11 10 11 11 11 11 13 16 19 21
1 2 5 8 1 3 10 0 7 2 7 5 3 5 4 4 6 1 2 7 2 12 8 7 12 12 15 19 20 19 20 19 19 15 12 10 10 17 11 9 10 11 12 11 12 11 16 19 17
4 3 6 6 8 4 2 2 10 3 9 12 11 8 4 5 2 6 8 6 6 6 15 14 14 16 16 18 19 20 22 24 22 19 13 10 5 11 11 11 11 13 12 11 11 13 16 16 14
6 4 8 7 4 7 9 7 8 9 7 11 7 5 1 2 3 3 5 2 5 9 12 11 17 13 16 17 21 21 22 26 21 23 21 17 16 14 10 13 13 12 13 13 15 16 13 8 12
5 13 13 9 1 6 7 11 12 11 13 12 3 3 5 6 6 3 4 5 7 7 8 12 13 18 18 18 19 18 20 20 19 24 26 15 10 13 13 13 14 15 13 14 17 13 9 11 12
9 10 17 8 8 10 11 12 12 18 17 13 7 8 9 9 7 6 6 7 9 10 9 12 11 13 16 18 18 17 16 21 17 19 19 13 13 11 4 18 15 17 14 12 17 12 15 15 13
6 9 12 12 12 14 13 13 17 16 15 16 11 12 12 11 8 8 9 10 11 10 10 15 15 15 15 14 16 15 14 12 17 20 14 12 12 21 19 12 19 20 18 18 18 13 16 14 15
12 10 10 15 18 11 12 8 15 28 19 17 13 16 14 11 8 12 13 14 14 15 14 11 15 20 19 20 17 15 15 12 13 19 21 21 14 4 11 22 16 14 23 24 19 21 19 21 22
9 10 10 8 14 5 7 9 15 11 18 12 13 19 18 18 14 14 15 17 21 21 18 17 17 20 17 19 19 20 18 16 15 17 19 25 25 20 23 23 22 18 21 20 19 24 24 23 23
10 7 9 7 10 5 7 7 10 4 7 11 14 17 17 13 8 13 11 12 13 20 24 24 19 16 19 15 17 18 18 20 19 19 20 21 28 32 29 24 27 26 18 20 21 23 25 24 23
9 8 8 5 8 7 8 12 10 20 18 18 12 14 13 7 9 14 17 21 24 22 19 25 27 18 17 14 19 18 19 18 18 19 21 21 22 34 32 28 27 27 21 23 26 26 26 25 24
14 13 9 10 10 5 6 11 14 18 15 11 14 11 6 7 10 13 18 14 15 12 18 21 21 20 17 16 22 18 16 15 15 21 18 19 22 25 31 33 31 30 28 26 23 28 28 27 22
8 11 11 11 12 1 7 13 14 12 7 11 4 4 4 4 8 12 15 12 12 8 8 16 16 21 18 20 21 17 15 13 17 17 16 20 24 28 37 35 33 34 32 27 25 28 28 27 24
11 13 12 13 10 6 11 17 14 9 10 10 6 5 3 5 5 9 11 12 8 8 8 7 4 10 16 20 17 16 17 14 12 11 11 12 18 30 41 37 37 35 33 30 26 27 29 30 27
12 10 9 12 4 4 4 6 11 4 7 8 12 11 9 5 3 5 8 10 10 6 6 4 9 14 15 15 18 16 14 14 11 9 11 17 18 34 41 41 37 35 30 31 27 26 29 28 26
11 3 5 5 6 9 10 5 5 10 8 10 11 14 11 6 3 3 7 9 9 7 5 5 10 14 12 14 15 13 16 12 4 6 10 18 24 36 43 39 32 29 31 31 28 30 27 25 25
4 4 6 6 4 5 14 11 6 7 9 12 12 15 14 9 5 4 6 8 8 9 9 5 12 15 13 16 15 13 8 6 8 8 11 23 25 31 33 31 30 29 31 29 29 27 25 21 23
6 5 2 3 3 5 6 2 6 5 6 11 11 20 15 11 7 5 7 6 8 9 9 10 8 12 12 15 16 12 7 2 7 10 14 27 36 28 28 29 30 26 23 25 24 22 21 16 17
11 8 5 5 2 3 2 5 4 10 13 16 18 21 17 12 9 6 6 5 7 12 12 8 5 8 8 10 14 12 8 5 3 13 11 34 32 26 27 24 28 30 30 28 24 21 19 20 13
9 9 9 4 5 3 5 6 1 10 9 11 14 20 18 14 10 8 6 5 5 7 11 10 8 8 8 6 5 7 6 2 4 3 5 19 22 21 26 22 23 28 30 27 25 25 23 22 19
15 6 3 4 3 5 7 8 5 11 13 12 11 17 19 15 13 10 8 5 5 6 7 9 9 9 7 7 7 9 9 10 9 7 14 13 16 17 15 19 17 28 30 27 26 24 25 26 25
7 6 7 6 5 3 4 0 6 12 16 16 12 20 24 19 16 13 11 8 7 7 8 9 10 10 8 7 8 8 9 10 16 8 15 15 14 12 13 19 23 28 32 30 27 26 24 20 21
15 11 14 4 6 5 2 5 4 10 9 18 18 22 23 21 18 15 14 11 8 8 9 11 11 11 11 11 11 12 11 11 15 14 15 13 13 10 9 16 20 22 28 33 31 25 25 24 24

GFSSGP_850_spd_147.txt.gz
Wind_Speed
3 1 3 6 4 4 4 4 2 5 4 6 7 3 10 12 4 4 7 7 12 12 9 15 15 13 13 13 11 8 7 6 7 10 12 10 12 11 9 11 12 14 15 15 16 17 20 22 21
4 3 2 1 4 2 5 3 6 6 7 5 8 8 5 3 11 9 4 3 9 11 10 15 15 13 13 12 11 9 8 8 8 9 12 13 11 11 12 11 12 13 14 14 15 16 19 20 19
7 2 1 3 3 4 2 3 5 7 8 4 6 6 5 3 9 5 3 3 13 13 10 10 13 14 13 13 11 10 10 9 9 8 10 15 12 11 12 12 12 12 12 12 12 14 17 20 18
6 3 2 2 6 6 4 4 8 5 3 3 5 6 7 3 5 5 4 1 19 13 9 6 13 13 12 12 12 11 10 10 7 7 7 14 13 10 11 10 11 10 10 9 11 15 19 19 18
4 1 1 2 6 5 2 11 10 4 7 6 3 3 6 6 5 7 11 6 19 13 10 7 11 12 12 12 12 11 10 8 7 7 6 10 14 11 10 10 9 10 10 10 13 18 21 19 17
1 1 1 3 4 6 2 13 11 3 5 5 3 7 4 7 6 9 12 13 12 9 11 10 7 11 13 13 12 12 13 11 9 7 6 9 13 12 10 9 10 11 10 12 16 19 20 21 19
2 3 4 3 5 5 3 12 7 1 3 4 3 4 7 6 8 5 12 17 7 13 11 12 11 12 13 14 14 14 13 13 11 9 6 11 13 12 11 10 11 11 12 15 17 19 22 20 20
0 3 3 4 3 2 2 4 5 6 3 3 1 2 5 4 3 3 3 11 10 3 9 12 12 14 14 15 15 15 14 15 14 11 8 12 13 12 11 12 11 12 13 17 19 20 22 21 17
1 3 3 3 4 2 4 3 2 4 6 6 4 0 10 3 2 2 4 4 5 9 6 10 11 13 12 15 16 16 16 16 17 14 11 9 15 12 11 11 11 12 13 15 17 20 23 22 16
3 3 3 1 1 2 2 5 2 2 4 6 10 9 12 5 3 3 8 5 5 6 7 12 9 9 11 14 16 19 18 20 19 18 17 15 16 14 9 10 11 12 14 16 17 20 22 18 11
4 4 3 6 2 4 6 5 2 4 4 8 2 9 4 4 1 3 1 7 6 6 10 9 15 16 13 17 17 19 20 24 23 25 22 19 15 13 12 10 12 15 13 17 20 22 21 19 9
2 11 12 14 3 2 3 7 8 8 13 13 10 7 5 3 2 7 8 8 6 7 11 11 11 15 20 19 19 18 20 25 26 24 25 21 19 15 11 13 14 13 15 18 22 23 19 20 10
6 6 14 18 11 8 8 10 8 16 18 16 14 16 12 7 8 5 5 8 11 12 11 14 12 13 15 18 21 20 18 21 23 15 22 25 21 10 12 17 19 16 16 22 21 19 22 21 11
7 6 8 12 12 12 9 12 14 12 11 15 16 15 12 8 9 10 11 13 11 11 10 13 15 16 17 17 19 19 18 17 20 20 23 20 15 13 14 22 21 23 21 24 20 20 24 19 21
7 6 7 13 15 8 16 6 9 27 22 24 19 17 13 10 16 20 20 19 15 18 17 14 11 14 14 15 18 17 15 18 17 23 23 19 19 6 20 14 22 25 25 21 21 19 26 21 19
5 4 1 7 8 12 12 9 9 18 18 26 19 18 17 17 24 22 17 16 18 18 19 25 18 10 15 16 18 18 16 18 14 19 18 22 21 15 13 9 18 11 23 31 22 30 25 25 23
3 4 7 7 8 6 7 7 9 9 6 14 18 17 13 18 19 12 10 10 11 12 14 16 23 21 10 15 15 19 17 14 16 16 16 19 25 21 19 17 11 19 23 25 25 26 29 29 24
5 4 6 5 4 4 5 11 9 18 15 20 21 15 11 15 8 5 9 14 20 24 24 25 22 26 23 14 16 18 20 18 16 16 16 17 21 30 27 25 15 22 27 31 29 29 28 30 28
8 6 7 6 4 6 11 10 11 18 18 17 22 19 15 10 4 8 16 21 20 14 10 11 15 18 21 19 17 19 20 21 18 19 19 19 20 21 27 29 23 28 31 24 31 32 28 28 30
10 9 5 5 7 2 5 11 10 10 12 17 25 16 15 8 3 11 13 12 11 11 11 10 12 16 18 20 18 18 17 16 16 20 21 19 19 21 25 29 28 32 29 32 31 36 34 28 30
8 4 4 7 7 4 5 9 8 5 6 20 20 19 11 5 2 4 6 10 10 7 9 10 8 8 19 23 20 18 16 18 17 18 18 20 17 21 24 24 31 36 38 34 35 36 35 31 28
5 7 5 3 2 4 5 6 6 4 5 6 21 19 14 8 5 3 4 5 6 4 5 4 6 8 17 21 20 19 20 18 19 17 19 16 14 20 26 27 33 39 42 36 35 36 35 32 32
7 4 3 0 2 4 2 2 7 3 6 8 10 22 17 11 9 5 1 4 4 3 3 3 6 11 12 16 19 21 21 21 21 17 15 14 11 14 24 33 41 47 44 37 36 35 31 29 32
6 4 2 2 3 3 6 9 5 4 9 8 11 24 20 14 12 7 4 3 2 4 4 7 9 11 11 14 17 17 15 15 17 16 17 16 14 21 18 42 49 46 42 35 33 29 29 28 26
6 7 2 2 1 6 4 5 11 6 10 15 18 25 23 18 16 10 7 4 4 3 5 7 10 10 12 14 15 15 11 9 13 15 17 15 19 23 34 38 45 43 34 36 30 25 27 26 27
7 8 6 6 4 5 5 5 5 2 7 24 28 30 26 21 16 13 9 6 4 4 3 6 9 9 9 12 13 10 9 2 2 8 13 20 20 24 28 32 36 35 38 34 24 25 25 24 28
5 8 7 2 2 2 4 6 3 3 8 16 23 29 27 23 17 15 12 9 7 5 5 5 8 9 10 10 12 12 8 2 3 3 8 19 27 34 35 30 34 34 32 29 25 26 25 21 21
9 6 3 1 3 5 6 5 6 8 11 13 15 22 26 22 19 17 14 12 9 7 4 5 7 9 8 8 10 10 9 6 4 4 7 15 31 32 28 29 29 28 29 28 28 28 26 25 20
5 6 3 5 5 5 3 5 5 18 17 17 14 23 28 25 21 19 16 14 11 9 7 6 8 9 8 6 6 6 7 8 5 4 11 18 16 16 20 21 27 31 29 28 28 27 27 27 24
14 18 15 5 5 5 3 6 3 10 16 20 20 26 29 26 22 21 18 16 14 13 11 10 10 9 10 10 9 9 9 9 11 6 11 15 18 17 19 20 24 27 32 32 31 28 26 25 23

GFSSGP_850_spd_150.txt.gz
Wind_Speed
6 5 3 2 4 4 3 5 2 3 2 2 4 7 9 5 2 2 4 5 6 6 7 16 15 15 15 14 12 10 7 6 7 10 6 9 9 11 10 11 13 13 16 15 17 18 17 18 17
8 4 3 3 4 2 4 4 4 2 2 6 10 12 5 3 5 8 3 2 7 7 7 15 15 15 15 14 12 9 8 8 8 10 10 10 9 9 10 12 13 15 14 16 17 17 16 15 15
8 5 2 4 3 3 2 1 4 3 6 6 4 9 4 3 6 3 2 2 6 9 7 13 14 15 15 14 12 10 10 10 9 10 13 13 9 10 11 12 13 14 14 14 15 16 15 13 14
6 4 1 3 4 5 4 5 4 3 5 6 4 5 5 5 2 3 4 2 6 9 8 8 13 14 15 14 13 12 12 11 10 10 14 13 12 11 11 11 11 11 12 11 15 17 14 14 16
5 2 2 1 2 4 1 4 4 3 4 4 3 4 4 6 7 5 6 2 6 9 8 8 10 14 14 14 14 13 12 11 10 10 12 16 13 12 10 10 10 9 9 12 18 19 16 14 15
2 1 2 2 3 3 2 8 6 3 3 3 5 6 3 8 7 5 6 6 6 4 7 8 10 13 13 14 14 13 14 11 10 9 11 16 15 13 11 9 9 9 10 15 19 20 17 15 15
3 3 3 3 3 4 5 6 5 5 4 3 6 4 6 9 6 8 4 4 11 11 10 12 14 13 14 14 14 14 15 14 11 10 10 15 15 14 12 10 10 10 12 16 19 20 19 19 19
2 3 1 3 2 4 3 5 8 6 3 3 3 5 5 11 7 5 6 4 4 11 13 11 11 12 14 14 15 14 14 15 13 11 10 15 15 14 13 12 12 11 13 17 19 19 19 19 15
2 3 2 3 1 1 3 2 2 4 4 2 2 9 8 11 6 3 5 4 3 9 10 12 14 14 14 15 15 16 16 16 16 14 15 18 17 16 14 13 13 12 14 18 20 20 18 17 14
3 3 6 3 2 2 3 3 5 3 1 2 2 7 15 12 7 5 5 6 5 6 11 13 12 12 14 14 16 18 18 19 19 20 19 20 20 19 18 14 12 12 14 17 20 20 17 14 12
3 4 3 4 3 4 2 4 2 5 2 8 5 18 13 10 8 6 7 8 9 7 8 10 14 17 16 16 17 19 21 23 23 25 23 20 23 21 18 17 16 14 15 18 22 20 16 10 9
2 11 14 9 15 6 3 3 5 6 7 10 9 14 14 10 8 8 9 8 10 9 9 9 11 15 17 18 18 17 21 25 26 27 26 25 24 23 16 13 12 15 16 18 25 24 17 13 10
5 8 14 16 15 13 7 7 8 12 14 11 8 16 16 14 12 11 11 11 13 13 11 11 12 12 13 16 19 21 20 24 26 28 31 30 25 18 18 18 15 15 16 19 27 24 17 15 13
4 6 10 10 9 9 6 9 8 13 11 11 12 19 17 16 14 14 13 15 17 18 16 17 16 15 14 15 16 19 20 23 22 26 32 21 25 14 16 14 20 17 20 24 27 22 20 16 16
6 5 7 9 11 7 12 7 10 27 16 16 16 20 21 19 15 13 15 19 19 18 16 17 19 16 15 15 16 16 14 21 23 28 27 19 21 18 23 20 19 23 25 29 24 21 19 21 21
4 3 2 5 2 8 12 9 9 17 16 19 22 24 25 20 18 21 21 23 21 19 21 20 17 19 18 16 14 15 16 18 22 26 24 23 25 21 21 19 9 22 21 30 28 22 23 22 25
3 3 5 8 6 3 8 6 13 19 14 14 12 20 28 23 19 23 23 22 20 20 19 17 17 16 18 19 17 14 17 18 21 24 25 28 26 22 23 20 14 18 10 24 27 24 29 28 29
5 4 5 5 4 4 6 10 8 12 12 16 17 22 24 21 20 20 18 16 15 18 22 25 26 27 21 19 19 15 17 18 19 22 21 24 30 26 19 17 19 17 14 13 29 28 27 29 30
1 3 6 6 9 6 8 10 13 18 18 20 21 19 20 21 16 12 11 12 15 16 15 14 12 18 17 19 20 21 20 21 21 18 21 19 25 28 23 20 20 17 19 25 33 32 30 33 30
8 8 9 9 6 5 7 11 11 9 12 24 31 22 28 21 15 8 7 8 8 10 11 13 10 12 15 20 18 20 19 21 21 19 17 18 19 24 26 29 28 23 24 25 34 36 36 34 34
9 9 6 8 4 4 4 10 8 4 3 6 14 28 28 22 15 7 6 8 8 7 8 9 11 14 16 18 20 22 20 21 21 23 22 21 19 20 22 26 31 31 30 31 37 40 39 39 38
13 8 10 5 2 3 3 6 7 7 5 4 19 29 24 18 10 5 4 3 3 3 6 8 8 10 9 16 18 20 24 26 26 23 21 22 20 22 24 25 27 35 35 36 38 40 41 40 39
9 8 6 4 2 2 3 2 6 1 5 7 8 22 20 15 11 9 4 1 2 3 3 5 6 8 10 14 15 20 24 23 20 21 20 18 19 24 22 24 22 33 37 38 40 44 44 42 39
4 4 6 5 2 4 8 8 6 4 7 6 7 21 22 19 14 10 7 3 2 2 1 3 3 8 8 11 12 19 18 17 16 20 22 22 18 20 20 24 26 33 42 42 41 44 43 41 36
4 6 2 3 2 6 3 3 10 6 6 15 18 25 25 20 17 14 9 5 3 2 1 4 5 4 6 9 12 13 12 14 16 17 20 19 19 17 19 20 32 36 45 46 46 42 38 36 33
7 9 6 6 4 5 1 6 6 4 7 16 23 29 27 22 19 15 11 7 6 5 3 5 7 5 8 9 10 10 10 9 8 11 14 18 19 18 18 21 30 36 48 50 37 35 32 29 27
6 5 7 4 1 1 5 7 8 5 6 16 22 28 29 25 21 18 14 9 7 4 5 5 8 9 9 10 12 12 15 6 3 5 8 13 15 17 25 28 39 44 41 40 34 32 29 28 26
11 8 3 2 3 5 5 5 8 5 6 9 14 21 27 26 22 19 16 12 9 6 4 6 7 8 9 10 10 12 13 6 4 7 9 13 16 18 23 30 33 34 33 35 34 28 28 25 26
3 5 3 5 6 5 2 6 6 12 13 17 13 23 31 29 26 22 17 14 11 8 6 6 7 8 7 7 8 9 7 7 5 1 5 7 14 28 28 28 29 30 32 31 31 31 30 27 26
17 15 8 5 5 5 3 6 3 8 14 17 20 24 30 28 26 23 19 16 14 11 10 8 8 7 8 7 8 9 7 8 6 5 6 14 18 21 22 27 31 30 30 27 26 27 29 25 21